• en France
  • Liste des pays
  • À 7 jours
  • Température de l'eau
  • Carte satellitaire
  • Carte météo
  • Widgets météo
  • user-avatar
    Se connecter

    Météo par heure à Manizales

    Ce jour, 19 Août, Dimanche

    Heure Température Précipitation Vent Pression Humidité
    00:00 +15°C° 0,1 mm 1 m/s 603 mmHg 67%
    01:00 +15°C° 0,1 mm 1 m/s 603 mmHg 68%
    02:00 +15°C° 0 mm 1 m/s 603 mmHg 68%
    03:00 +14°C° 0 mm 1 m/s 603 mmHg 68%
    04:00 +14°C° 0 mm 1 m/s 602 mmHg 68%
    05:00 +15°C° 0 mm 1 m/s 603 mmHg 66%
    06:00 +15°C° 0 mm 1 m/s 603 mmHg 65%
    07:00 +16°C° 0 mm 1 m/s 604 mmHg 63%
    08:00 +20°C° 0 mm 1 m/s 605 mmHg 54%
    09:00 +23°C° 0 mm 1 m/s 606 mmHg 45%
    10:00 +26°C° 0 mm 1 m/s 607 mmHg 36%
    11:00 +27°C° 0,1 mm 1 m/s 607 mmHg 34%
    12:00 +29°C° 0,1 mm 1 m/s 607 mmHg 32%
    13:00 +30°C° 0,1 mm 1 m/s 607 mmHg 31%
    14:00 +29°C° 0,2 mm 1 m/s 606 mmHg 32%
    15:00 +28°C° 0,2 mm 1 m/s 605 mmHg 34%
    16:00 +27°C° 0,2 mm 1 m/s 604 mmHg 35%
    17:00 +24°C° 0,2 mm 1 m/s 604 mmHg 43%
    18:00 +22°C° 0,2 mm 1 m/s 604 mmHg 50%
    19:00 +19°C° 0,2 mm 1 m/s 603 mmHg 58%
    20:00 +19°C° 0,1 mm 1 m/s 603 mmHg 59%
    21:00 +18°C° 0,1 mm 1 m/s 604 mmHg 60%
    22:00 +16°C° 0,1 mm 1 m/s 604 mmHg 61%
    23:00 +16°C° 0 mm 1 m/s 604 mmHg 61%

    Demain, 20 Août, Lundi

    Heure Température Précipitation Vent Pression Humidité
    00:00 +16°C° 0 mm 1 m/s 604 mmHg 61%
    01:00 +15°C° 0 mm 1 m/s 603 mmHg 61%
    02:00 +15°C° 0 mm 1 m/s 603 mmHg 62%
    03:00 +15°C° 0 mm 1 m/s 603 mmHg 62%
    04:00 +15°C° 0 mm 1 m/s 602 mmHg 63%
    05:00 +15°C° 0 mm 1 m/s 603 mmHg 62%
    06:00 +16°C° 0 mm 1 m/s 603 mmHg 61%
    07:00 +16°C° 0 mm 1 m/s 604 mmHg 59%
    08:00 +20°C° 0 mm 1 m/s 605 mmHg 50%
    09:00 +24°C° 0 mm 1 m/s 607 mmHg 42%
    10:00 +27°C° 0 mm 1 m/s 608 mmHg 33%
    11:00 +28°C° 0 mm 1 m/s 608 mmHg 31%
    12:00 +29°C° 0 mm 1 m/s 607 mmHg 29%
    13:00 +30°C° 0 mm 1 m/s 607 mmHg 27%
    14:00 +30°C° 0,1 mm 1 m/s 606 mmHg 28%
    15:00 +29°C° 0,1 mm 1 m/s 605 mmHg 30%
    16:00 +28°C° 0,1 mm 1 m/s 605 mmHg 31%
    17:00 +25°C° 0,2 mm 1 m/s 604 mmHg 39%
    18:00 +23°C° 0,2 mm 1 m/s 604 mmHg 46%
    19:00 +20°C° 0,2 mm 1 m/s 603 mmHg 54%
    20:00 +19°C° 0,1 mm 1 m/s 604 mmHg 56%
    21:00 +18°C° 0,1 mm 1 m/s 604 mmHg 58%
    22:00 +18°C° 0,1 mm 1 m/s 604 mmHg 60%
    23:00 +16°C° 0 mm 1 m/s 604 mmHg 60%

    Après-demain, 21 Août, Mardi

    Heure Température Précipitation Vent Pression Humidité
    00:00 +16°C° 0 mm 1 m/s 604 mmHg 61%
    01:00 +15°C° 0 mm 1 m/s 604 mmHg 62%
    02:00 +15°C° 0 mm 1 m/s 603 mmHg 63%
    03:00 +15°C° 0 mm 1 m/s 603 mmHg 64%
    04:00 +15°C° 0 mm 1 m/s 603 mmHg 65%
    05:00 +15°C° 0 mm 1 m/s 603 mmHg 63%
    06:00 +16°C° 0 mm 1 m/s 604 mmHg 62%
    07:00 +16°C° 0 mm 1 m/s 604 mmHg 60%
    08:00 +20°C° 0 mm 1 m/s 605 mmHg 52%
    09:00 +23°C° 0 mm 1 m/s 607 mmHg 44%
    10:00 +26°C° 0 mm 1 m/s 608 mmHg 36%
    11:00 +27°C° 0 mm 1 m/s 607 mmHg 34%
    12:00 +28°C° 0 mm 1 m/s 607 mmHg 33%
    13:00 +29°C° 0 mm 1 m/s 607 mmHg 31%
    14:00 +29°C° 0,2 mm 1 m/s 606 mmHg 32%
    15:00 +28°C° 0,2 mm 1 m/s 605 mmHg 34%
    16:00 +27°C° 0,2 mm 1 m/s 604 mmHg 35%
    17:00 +25°C° 0,2 mm 1 m/s 604 mmHg 43%
    18:00 +22°C° 0,2 mm 1 m/s 604 mmHg 50%
    19:00 +19°C° 0,2 mm 1 m/s 603 mmHg 57%
    20:00 +19°C° 0,1 mm 1 m/s 604 mmHg 59%
    21:00 +18°C° 0,1 mm 1 m/s 604 mmHg 60%
    22:00 +18°C° 0,1 mm 1 m/s 604 mmHg 61%
    23:00 +16°C° 0 mm 1 m/s 604 mmHg 63%

    22 Août, Mercredi

    Heure Température Précipitation Vent Pression Humidité
    00:00 +16°C° 0 mm 1 m/s 604 mmHg 64%
    01:00 +16°C° 0 mm 1 m/s 603 mmHg 65%
    02:00 +15°C° 0,1 mm 1 m/s 603 mmHg 66%
    03:00 +15°C° 0,1 mm 1 m/s 603 mmHg 67%
    04:00 +15°C° 0,1 mm 1 m/s 602 mmHg 69%
    05:00 +15°C° 0,1 mm 1 m/s 603 mmHg 69%
    06:00 +15°C° 0,1 mm 1 m/s 603 mmHg 70%
    07:00 +16°C° 0,1 mm 1 m/s 604 mmHg 70%
    08:00 +19°C° 0,1 mm 1 m/s 605 mmHg 62%
    09:00 +21°C° 0,1 mm 1 m/s 606 mmHg 54%
    10:00 +24°C° 0,1 mm 1 m/s 607 mmHg 46%
    11:00 +25°C° 0,1 mm 1 m/s 606 mmHg 42%
    12:00 +26°C° 0,1 mm 1 m/s 606 mmHg 39%
    13:00 +28°C° 0,1 mm 1 m/s 606 mmHg 35%
    14:00 +27°C° 0,1 mm 1 m/s 605 mmHg 36%
    15:00 +27°C° 0,1 mm 1 m/s 605 mmHg 36%
    16:00 +26°C° 0,1 mm 1 m/s 604 mmHg 36%
    17:00 +24°C° 0,2 mm 1 m/s 604 mmHg 44%
    18:00 +21°C° 0,2 mm 1 m/s 603 mmHg 51%
    19:00 +19°C° 0,2 mm 1 m/s 603 mmHg 59%
    20:00 +18°C° 0 mm 1 m/s 603 mmHg 59%
    21:00 +18°C° 0 mm 1 m/s 604 mmHg 59%
    22:00 +16°C° 0 mm 1 m/s 604 mmHg 60%
    23:00 +16°C° 0 mm 1 m/s 604 mmHg 60%

    23 Août, Jeudi

    Heure Température Précipitation Vent Pression Humidité
    00:00 +16°C° 0 mm 1 m/s 603 mmHg 59%
    01:00 +15°C° 0 mm 1 m/s 603 mmHg 59%
    02:00 +15°C° 0 mm 1 m/s 603 mmHg 60%
    03:00 +15°C° 0 mm 1 m/s 603 mmHg 60%
    04:00 +14°C° 0 mm 1 m/s 602 mmHg 60%
    05:00 +15°C° 0,1 mm 1 m/s 603 mmHg 62%
    06:00 +15°C° 0,1 mm 1 m/s 603 mmHg 65%
    07:00 +15°C° 0,1 mm 1 m/s 604 mmHg 67%
    08:00 +18°C° 0,3 mm 1 m/s 604 mmHg 64%
    09:00 +19°C° 0,3 mm 1 m/s 605 mmHg 61%
    10:00 +21°C° 0,3 mm 1 m/s 606 mmHg 58%
    11:00 +23°C° 0,1 mm 1 m/s 606 mmHg 51%
    12:00 +24°C° 0,1 mm 1 m/s 606 mmHg 45%
    13:00 +26°C° 0,1 mm 1 m/s 606 mmHg 39%
    14:00 +26°C° 0,1 mm 1 m/s 605 mmHg 39%
    15:00 +25°C° 0,1 mm 1 m/s 605 mmHg 40%
    16:00 +25°C° 0,1 mm 1 m/s 604 mmHg 41%
    17:00 +23°C° 0,2 mm 1 m/s 604 mmHg 48%
    18:00 +20°C° 0,2 mm 1 m/s 603 mmHg 55%
    19:00 +18°C° 0,2 mm 1 m/s 603 mmHg 62%
    20:00 +18°C° 0,1 mm 1 m/s 603 mmHg 63%
    21:00 +16°C° 0,1 mm 1 m/s 604 mmHg 65%
    22:00 +16°C° 0,1 mm 1 m/s 604 mmHg 66%
    23:00 +15°C° 0 mm 1 m/s 604 mmHg 67%

    24 Août, Vendredi

    Heure Température Précipitation Vent Pression Humidité
    00:00 +15°C° 0 mm 1 m/s 603 mmHg 67%
    01:00 +15°C° 0 mm 1 m/s 603 mmHg 67%
    02:00 +15°C° 0 mm 1 m/s 603 mmHg 67%
    03:00 +15°C° 0 mm 1 m/s 602 mmHg 67%
    04:00 +14°C° 0 mm 1 m/s 602 mmHg 67%
    05:00 +15°C° 0 mm 1 m/s 603 mmHg 66%
    06:00 +15°C° 0 mm 1 m/s 603 mmHg 64%
    07:00 +16°C° 0 mm 1 m/s 604 mmHg 63%
    08:00 +19°C° 0 mm 1 m/s 605 mmHg 56%
    09:00 +22°C° 0 mm 1 m/s 606 mmHg 49%
    10:00 +24°C° 0 mm 1 m/s 607 mmHg 42%
    11:00 +25°C° 0,1 mm 1 m/s 606 mmHg 41%
    12:00 +26°C° 0,1 mm 1 m/s 606 mmHg 40%
    13:00 +27°C° 0,1 mm 1 m/s 606 mmHg 39%
    14:00 +26°C° 0,2 mm 1 m/s 605 mmHg 40%
    15:00 +25°C° 0,2 mm 1 m/s 604 mmHg 42%
    16:00 +25°C° 0,2 mm 1 m/s 604 mmHg 43%
    17:00 +23°C° 0,3 mm 1 m/s 603 mmHg 50%
    18:00 +20°C° 0,3 mm 1 m/s 603 mmHg 57%
    19:00 +18°C° 0,3 mm 1 m/s 603 mmHg 64%
    20:00 +18°C° 0,1 mm 1 m/s 603 mmHg 66%
    21:00 +18°C° 0,1 mm 1 m/s 604 mmHg 67%
    22:00 +16°C° 0,1 mm 1 m/s 604 mmHg 69%
    23:00 +16°C° 0,1 mm 1 m/s 604 mmHg 69%
    Voir plus